Printer-friendly version

IAU Minor Planet Center

Minor Planet Center

MPEC 2004-A09 : COMET C/2003 T4 (LINEAR)

The following Minor Planet Electronic Circular may be linked-to from your own Web pages, but must not otherwise be redistributed electronically.


Read MPEC 2004-A08 Read MPEC 2004-A10


M.P.E.C. 2004-A09                                Issued 2004 Jan. 3, 16:26 UT

     The Minor Planet Electronic Circulars contain information on unusual
         minor planets and routine data on comets.  They are published
   on behalf of Commission 20 of the International Astronomical Union by the
          Minor Planet Center, Smithsonian Astrophysical Observatory,
                          Cambridge, MA 02138, U.S.A.

         Supported in part by the Steven and Michele Kirsch Foundation
             Prepared using the Tamkin Foundation Computer Network

                              MPC@CFA.HARVARD.EDU
          URL http://cfa-www.harvard.edu/iau/mpc.html  ISSN 1523-6714

                           COMET C/2003 T4 (LINEAR)

Observations:
    CK03T040  C2003 12 17.40435 07 50 52.52 +75 47 48.9          17.6 N EA009H41
    CK03T040  C2003 12 17.40919 07 50 52.47 +75 47 50.8          17.8 N EA009H41
    CK03T040  C2003 12 17.41167 07 50 51.97 +75 47 51.9          17.7 N EA009H41
    CK03T040  C2003 12 19.18311 07 46 53.05 +76 02 41.5          17.3 N EA009A32
    CK03T040  C2003 12 21.68271 07 40 50.75 +76 22 38.0                 EA009349
    CK03T040  C2003 12 21.68563 07 40 50.34 +76 22 40.3                 EA009349
    CK03T040  C2003 12 21.69147 07 40 49.48 +76 22 42.3                 EA009349
    CK03T040  C2003 12 21.69733 07 40 48.58 +76 22 45.8          16.7 T EA009349
    CK03T040  C2003 12 22.24549 07 39 25.25 +76 26 58.3          18.0 T EA009785
    CK03T040  C2003 12 22.25638 07 39 23.45 +76 27 01.4          17.9 T EA009785
    CK03T040  C2003 12 23.86402 07 35 10.70 +76 38 58.4                 EA009048
    CK03T040  C2003 12 23.87272 07 35 09.25 +76 39 02.7                 EA009048
    CK03T040  C2003 12 23.88433 07 35 07.23 +76 39 07.7                 EA009048
    CK03T040  C2003 12 23.94447 07 34 57.50 +76 39 34.1                 EA009A46
    CK03T040  C2003 12 23.94741 07 34 57.25 +76 39 33.6                 EA009A46
    CK03T040  C2003 12 23.94889 07 34 56.79 +76 39 35.2                 EA009A46
    CK03T040  C2003 12 23.95184 07 34 56.01 +76 39 36.2                 EA009A46
    CK03T040  C2003 12 23.95479 07 34 55.58 +76 39 37.4                 EA009A46
    CK03T040  C2003 12 23.95626 07 34 55.38 +76 39 39.6                 EA009A46
    CK03T040  C2003 12 28.50608 07 21 52.71 +77 10 07.0                 EA009349
    CK03T040  C2003 12 28.51631 07 21 50.87 +77 10 10.0                 EA009349
    CK03T040  C2003 12 28.53568 07 21 47.19 +77 10 17.6          16.7 T EA009349
    CK03T040  C2003 12 29.24828 07 19 36.14 +77 14 34.9          17.8 T EA009785
    CK03T040  C2003 12 29.26774 07 19 32.25 +77 14 42.7          17.9 T EA009785
    CK03T040  C2003 12 31.66791 07 11 55.90 +77 28 04.3                 EA009349
    CK03T040  C2003 12 31.67376 07 11 54.73 +77 28 05.8                 EA009349
    CK03T040  C2003 12 31.67959 07 11 53.81 +77 28 07.2          16.8 T EA009349

Observer details:
048 Hradec Kralove.  Observer M. Lehky.  0.40-m f/5 reflector + CCD.
349 Ageo.  Observer K. Kadota.  0.25-m f/5.0 reflector + CCD.
785 Fitz-Randolph Observatory, Princeton.  Observer J. Maffei.  0.91-m f/13.6
    Cassegrain + CCD.
A32 Panker.  Observer H. Denzau.  0.36-m f/5.5 Schmidt-Cassegrain + CCD.
A46 Lelekovice.  Observer K. Hornoch.  0.35-m f/4.7 reflector + CCD.
H41 Petit Jean Mountain.  Observer P. C. Sherrod.  0.41-m f/3.7
    Schmidt-Cassegrain + CCD.

Orbital elements:
    C/2003 T4 (LINEAR)
Epoch 2005 Apr. 20.0 TT = JDT 2453480.5
T 2005 Apr. 3.64281 TT                                  MPC
q   0.8499334            (2000.0)            P               Q
z  -0.0007782      Peri.  181.66606     +0.06979012     +0.05425765
 +/-0.0000689      Node    93.90964     -0.90331075     +0.42711558
e   1.0006615      Incl.   86.76709     -0.42327181     -0.90256766
Residuals in seconds of arc
031013 704  0.0   0.7-    031103 785 (1.6+  3.7-)   031129 A46  0.1-  0.4+
031013 704  0.1-  0.4+    031103 785  1.1+  1.0-    031129 A46  0.2-  0.2-
031013 704  1.2-  0.3+    031106 704  1.4+  0.6+    031130 H41  0.2+  0.0
031013 704  0.3+  1.5+    031106 704  1.0-  1.1+    031130 H41  0.8-  0.3+
031014 651  1.0+  0.2+    031106 704  1.0+  1.1+    031130 H41  0.9-  1.9+
031014 651  0.9-  0.6-    031109 A46  0.6-  0.0     031201 H41  0.7+  0.2+
031014 651  0.6-  0.1+    031109 A46  0.2-  0.5-    031201 H41  0.1-  0.2-
031014 926  1.2-  0.0     031109 A46  0.5+  0.4+    031201 H41  0.5+  0.0
031014 926  0.1-  0.1-    031109 A46  0.5+  0.3-    031201 H41  0.0   0.4+
031014 926  0.7-  0.6-    031109 A46  0.8+  0.9-    031201 360  0.3+  0.3-
031015 G90  0.1-  0.2+    031109 A46  1.0+  0.3-    031201 360  0.2+  0.5+
031015 G90  0.2-  0.0     031110 785 (0.9+  3.0+)   031202 349  0.2+  0.6-
031015 G90  0.1+  0.1+    031110 785  0.4+  1.5+    031202 349  0.5+  0.8-
031015 926  0.3-  0.1+    031114 213  1.9-  2.0+    031202 349  0.6-  1.1-
031015 926  0.3-  0.1-    031114 213  1.7-  0.9+    031202 349  0.2-  1.1-
031015 926  0.2-  0.3+    031117 340  1.0+  1.3+    031210 A32  0.3-  0.4-
031015 673  0.2-  0.0     031117 340  0.1+  0.7+    031210 A32  1.1-  0.9+
031015 673  0.5-  0.2+    031117 340  0.6-  0.5-    031211 A32  0.7-  0.6+
031015 673  0.3-  0.2-    031117 360  0.1+  0.2-    031211 A32  1.2-  0.8+
031015 673  0.1-  0.5+    031117 360  0.3+  0.0     031211 704  0.3+  0.3-
031015 673  0.1+  0.5-    031117 349  0.8-  0.3-    031211 704 (1.2+  2.3+)
031015 673  0.1-  0.7+    031117 349  0.2-  0.3-    031211 704 (2.2+  0.7+)
031016 J95  0.2-  0.5+    031117 349  0.3-  0.7+    031211 704 (0.2-  2.1+)
031016 J95  1.1-  0.5+    031117 349  0.5+  0.7+    031212 H41  0.3-  0.4-
031016 J95  0.6-  0.7+    031119 H41  1.4-  0.5+    031212 H41  0.2-  0.2+
031016 704  0.9+  0.3+    031119 H41  0.9-  1.5+    031212 H41  0.7+  0.5-
031016 704  1.3+  0.2+    031119 H41 (0.0   2.0+)   031212 H41  0.3-  1.3-
031016 704  1.4+  0.3+    031120 H41  1.2-  1.5-    031212 349  0.3+  0.5+
031017 J95  0.3-  0.1+    031120 H41  0.4-  0.1-    031212 349  0.5+  0.3-
031017 J95  1.2-  0.4-    031120 H41  0.3+  1.3+    031212 349  0.5+  0.6+
031017 J95  0.1-  0.0     031121 349  1.5-  0.7-    031214 349  0.1-  0.0
031019 372  0.8-  0.6-    031121 349  1.6-  1.0-    031214 349  0.1-  0.0
031020 785 (2.2-  3.6-)   031121 349  0.7-  0.7-    031214 349  0.2-  0.1-
031020 785  1.2-  0.1+    031121 349  0.7-  1.0-    031217 H41  1.1-  0.3+
031020 785 (1.1-  2.3+)   031123 340  1.9+  1.6-    031217 H41  1.1+  0.3-
031022 372  1.0+  0.6-    031123 340  0.9+  0.5-    031217 H41  0.5+  0.4-
031023 360  1.1+  0.1-    031123 340  0.9-  1.7+    031219 A32  0.1+  0.5+
031023 360  0.4+  0.1+    031124 785  0.9-  0.4+    031221 349  0.1-  0.0
031023 360  0.9+  0.3-    031124 785 (0.6-  2.4+)   031221 349  0.0   0.9+
031024 372  0.1+  0.6-    031124 785  0.2-  0.7+    031221 349  0.2+  0.2+
031024 A46  1.7+  1.4-    031124 785  0.2+  0.1-    031221 349  0.2+  1.0+
031024 A46  1.7+  0.3-    031125 H41  0.4-  0.0     031222 785  0.4+  1.3+
031024 A46  0.5+  0.2-    031125 H41  0.7-  0.5+    031222 785  0.1+  0.6-
031024 A46  0.2+  0.0     031125 H41  0.9-  0.5+    031223 048  0.9+  0.4-
031024 A46  0.6+  0.9-    031128 H41  0.5-  1.6+    031223 048  0.8+  0.1+
031024 A46 (0.2+  2.4-)   031128 H41  0.6-  0.1+    031223 048  0.3+  0.0
031028 372  0.1-  1.3-    031128 H41  0.0   0.7+    031223 A46  0.6+  0.0
031029 349  0.2+  1.0+    031129 213  0.2+  0.9-    031223 A46  1.4+  1.8-
031029 349  0.4+  0.4-    031129 213  0.6-  0.5-    031223 A46  0.6+  0.9-
031029 349  0.6-  0.9+    031129 176  0.6+  0.2-    031223 A46  0.4-  1.2-
031029 349  0.7+  0.6-    031129 176  0.6+  0.0     031223 A46  0.2-  1.2-
031030 360  0.2+  0.4-    031129 176  0.7+  0.0     031223 A46  0.1-  0.3+
031030 360  0.3+  0.2-    031129 176  0.8+  0.1+    031228 349  0.0   0.8+
031030 360  0.0   0.6-    031129 104  0.3+  0.2+    031228 349  0.1+  0.0
031101 213  0.6-  1.5-    031129 104  0.9+  0.1+    031228 349  0.3-  0.3+
031101 213 (4.0-  1.2+)   031129 104  0.3+  0.2+    031229 785  0.2+  0.4+
031102 204  0.5+  0.1-    031129 A46  0.8+  0.7-    031229 785  0.6-  1.3+
031102 204  0.5+  0.2+    031129 A46  1.0+  1.3-    031231 349  0.9-  0.2+
031102 204  0.7+  0.1+    031129 A46  0.0   1.0-    031231 349  1.0-  0.1-
031103 785  0.3-  0.6-    031129 A46  0.2+  0.9-    031231 349  0.2-  0.5-

     The "original" and "future" barycentric values of 1/a are +0.000169
and -0.000827 (+/- 0.000069) AU**-1, respectively.

Brian G. Marsden             (C) Copyright 2004 MPC           M.P.E.C. 2004-A09

Read MPEC 2004-A08 Read MPEC 2004-A10


Our Web policy. Index to the CBAT/MPC/ICQ pages.


Valid HTML 4.01!